User: anonymous   Login
Location: *
(51.4660°N, 0.3360°W)
Time: 10:32:05
(UTC+00:00)
Language:

Cosmos 1821 Rocket - Orbit

View from above orbital plane
View from above orbital plane
View from above satellite
View from above satellite

Ground track
Ground track

The orbit data is extracted from the following two-line orbital elements,

1 17526U 87017B   19316.56148531 +.00000007 +00000-0 -86716-5 0  9998
2 17526 082.8998 103.7971 0040760 023.2512 337.0477 13.76871370626960
Epoch (UTC): 12 November 2019 13:28:32
Eccentricity: 0.0040760
inclination: 82.8998°
perigee height: 945 km
apogee height: 1005 km
right ascension of ascending node: 103.7971°
argument of perigee: 23.2512°
revolutions per day: 13.76871370
mean anomaly at epoch: 337.0477°
orbit number at epoch: 62696

The dashed part of the orbit path shows where the satellite is in the earth's shadow,  

DLR